Regional Weather Roundup
Issued by NWS Grand Forks, ND

Home | Current Version | Previous Version | Text Only | Print | Product List | Glossary Off
Versions: 1 2 3 4 5 6 7 8 9 10 11 12 13 14 15 16 17 18 19 20 21 22 23 24 25 26 27 28 29 30 31 32 33 34 35 36 37 38 39 40 41 42 43 44 45 46 47 48 49 50

000
ASUS43 KFGF 110431
RWRFGF
PRAIRIE TO PINES  WEATHER ROUNDUP
NATIONAL WEATHER SERVICE EASTERN NORTH DAKOTA/GRAND FORKS ND
1000 PM CST SUN DEC 10 2017

 **SATELLITE DATA USED TO AUGMENT SKY COVER AT AUTOMATED STATIONS**
 *****  WEATHER ACROSS EASTERN NORTH DAKOTA  *****

CITY           SKY/WX    TMP DP  RH WIND       PRES   REMARKS
GRAND FORKS    CLOUDY    28  26  92 S13       29.80F WCI  17
GRAND FRKS AFB CLOUDY    29  27  95 SW9       29.80S WCI  20
GRAND FRKS NWS   N/A     25 N/A N/A S9          N/A  WCI  15
DEVILS LAKE    CLOUDY    36  30  79 W16G25    29.77F
FARGO          FLURRIES  30  27  88 S14       29.84F WCI  19
WAHPETON ARPT  CLOUDY    30  25  80 S13       29.88F WCI  20
$$

 ***** WEATHER ACROSS CENTRAL AND WESTERN NORTH DAKOTA  *****

CITY           SKY/WX    TMP DP  RH WIND       PRES   REMARKS
BISMARCK       CLOUDY    44  26  49 W14       29.93S
MINOT          CLOUDY    44  24  45 W22G29    29.82F
JAMESTOWN      CLOUDY    38  30  73 W12       29.83F
MINOT AFB      MOCLDY    43  25  49 W23G31    29.80F
GARRISON         N/A     41  21  44 W23       29.88F
WILLISTON      FAIR      40  21  46 W18G26    29.97F
DICKINSON      FAIR      35  18  49 W13       29.96F
HETTINGER      FAIR      36  16  44 W15       30.02F
$$

 *****  OTHER AIRPORT OBSERVATIONS IN OUR AREA  *****

CITY           SKY/WX    TMP DP  RH WIND       PRES   REMARKS
WALHALLA       FAIR      25  25 100 SE8       29.71F WCI  16
GRAFTON AIRPOR NOT AVBL
VALLEY CITY AR NOT AVBL
CANDO          MOCLDY    34  34 100 W17       29.76F WCI  23
CAVALIER APRT  MOCLDY    25  27 100 S10       29.74F WCI  15
GWINNER          N/A     36  32  87 SW8       29.86F
SHEYENNE NWR     N/A     33  31  91 SW5       29.95S
ROLLA          MOCLDY    36  30  80 W16G23    29.73F
 ***** THE ABOVE OBSERVATIONS ARE NON NWS ARE NOT QUALITY
       CONTROLLED AND MAY MIS-REPORT RAIN FOR SNOW...
$$

  *****  WEATHER ACROSS NORTHERN MINNESOTA  *****

CITY           SKY/WX    TMP DP  RH WIND       PRES   REMARKS
FLAG ISLAND    LGT SNOW  18  16  93 S14       29.80F WCI   4
WARROAD        LGT SNOW  19  16  86 SE7       29.81F WCI  10
ROSEAU         LGT SNOW  21  18  86 S8        29.80F WCI  12
HALLOCK        LGT SNOW  25  23  93 S16       29.77F WCI  12
THF RVR FALLS  LGT SNOW  21  19  93 S9        29.81F FOG     WCI  11
BAUDETTE       CLOUDY    18  16  92 SE8       29.82F WCI   8
WASKISH        LGT SNOW  19  18  93 SE3       29.83F
CROOKSTON      LGT SNOW  25  23  93 S12       29.84S WCI  14
STEPHEN NDAWN    N/A     25  21  86 S13         N/A  WCI  13
GREENBUSH NDAW   N/A     21  19  93 S10         N/A  WCI  10
$$
  *****  WEATHER ACROSS CENTRAL AND WEST MINNESOTA  *****

CITY           SKY/WX    TMP DP  RH WIND       PRES   REMARKS
FOSSTON        LGT SNOW  21  19  93 S8        29.82F VSB 1   WCI  12
BEMIDJI        LGT SNOW  20  18  91 SE7       29.82F WCI  11
PARK RAPIDS    CLOUDY    22  18  85 S7        29.85F WCI  13
ELBOW LAKE     LGT SNOW  28  25  86 S8        29.90F WCI  20
WADENA         MOCLDY    23  19  86 S5        29.86F WCI  17
DETROIT LAKES  LGT SNOW  27  23  86 S6        29.86F WCI  20
MOORHEAD       LGT SNOW  27  25  93 S8        29.85F WCI  18
FERGUS FALLS   LGT SNOW  27  27 100 S8        29.93R WCI  18
MORRIS MN      CLOUDY    30  25  80 S8        29.89F WCI  23
STAPLES        CLOUDY    21  19  93 SE5       29.87F WCI  15
$$
  *****  WEATHER ELSEWHERE ACROSS MINNESOTA  *****

CITY           SKY/WX    TMP DP  RH WIND       PRES   REMARKS
DULUTH         MOCLDY    10   8  92 CALM      29.92F
INTRNTL FALLS  CLOUDY    11   7  84 SE6       29.88F WCI   1
ELY            FAIR       1  -2  85 CALM      29.90F
CLOQUET        FAIR      16  10  79 CALM      29.92F
WHEATON        NOT AVBL
BRAINERD       CLOUDY    23  18  81 CALM      29.93F
HIBBING        FAIR       6   4  91 CALM      29.91S
ALEXANDRIA     LGT SNOW  27  24  89 S8        29.88F FOG     WCI  19
SAINT CLOUD    CLOUDY    23  20  88 S3        29.96F
MINNEAPOLIS    CLOUDY    24  21  88 CALM      29.99F
$$

  *****  WEATHER ACROSS SOUTH DAKOTA  *****

CITY           SKY/WX    TMP DP  RH WIND       PRES   REMARKS
SIOUX FALLS    MOCLDY    35  29  78 SW3       29.98F
BROOKINGS      NOT AVBL
WATERTOWN      MOCLDY    34  27  75 W8        29.93F
HURON          FAIR      38  27  64 W7        29.96F
SISSETON         N/A     40  28  62 W13       29.88F
ABERDEEN       CLOUDY    34  29  82 SW6       29.92F
MITCHELL       FAIR      37  27  67 W7        30.00F
PIERRE         FAIR      44  22  41 W12       30.00F
MOBRIDGE       FAIR      40  25  55 NW10      29.95R
RAPID CITY     FAIR      43   8  23 W9        30.12S
$$

  *****  SOME WEATHER IN NEARBY STATES *****

CITY           SKY/WX    TMP DP  RH WIND       PRES   REMARKS
GLASGOW MT     FAIR      41  17  38 NW21      30.15S
GREAT FALLS MT FAIR      37  12  35 SW14      30.37R
CHEYENNE WY    FAIR      38   3  23 W8        30.32F
SCOTTSBLUFF NE FAIR      36   9  32 W13       30.26F
OMAHA NE       FAIR      31  24  75 SE6       30.06F
DES MOINES IA  CLOUDY    36  25  64 CALM      30.06F
DAVENPORT IA   FAIR      21  16  81 CALM      30.11F
CHICAGO IL     CLOUDY    29  19  66 N7        30.07S WCI  22
EAU CLAIRE WI  CLOUDY    17  14  88 CALM      30.01F
LA CROSSE WI   CLOUDY    28  20  71 CALM      30.05F
$$

  *****  SOME NATIONAL WEATHER *****

CITY           SKY/WX    TMP DP  RH WIND       PRES   REMARKS
LA GUARDIA NY  CLOUDY    37  20  50 SW10      30.01S
RALEIGH NC     FAIR      32  25  75 SW6       30.14F
ATLANTA GA     FAIR      35  27  72 W7        30.25R
NEW ORLEANS LA FAIR      43  35  73 W7        30.37R
OKLAHOMA CITY  FAIR      40  16  37 SW3       30.26F
ALBUQUERQUE NM MOCLDY    39   3  22 CALM      30.46R
SALT LAKE CITY FAIR      27  24  89 CALM      30.59F FOG
LOS ANGELES CA CLOUDY    72  16  12 CALM      30.13R
BOISE ID       CLOUDY    26  20  77 CALM      30.66S
SEATTLE WA     FAIR      41  28  60 N13       30.31S
$$

*** WEATHER ACROSS MANITOBA...SASKATCHEWAN AND ONTARIO ***
                ***ONTARIO***

CITY           SKY/WX    TMP DP  RH WIND       PRES   REMARKS
GERALDTON      CLOUDY    -8 -11  84 SW3       29.90F
THUNDER BAY    CLEAR     -4  -6  92 W2        30.01F
SIOUX LOOKOUT  MOCLDY    -2  -8  78 SE3       29.84S
TORONTO        SNOWSHWR  27  21  80 W12       29.86S WCI  16
BIG TROUT LK   LGT SNOW  -2  -8  78 W6        29.80F WCI -14
PICKLE LAKE    NOT AVBL
DRYDEN         CLOUDY     3   1  92 S15G21    29.80F WCI -15
KENORA         CLOUDY    12   9  85 S10       29.80F WCI  -1
$$
                *** MANITOBA***

CITY           SKY/WX    TMP DP  RH WIND       PRES   REMARKS
BRANDON        CLOUDY    34  30  86 W14       29.68F WCI  24
DAUPHIN        CLOUDY    36  32  87 W17       29.66F
ISLAND LAKE    LGT SNOW   3  -2  78 SE6       29.79F WCI  -8
PILOT MOUND      N/A     30  28  93 SW8         N/A  WCI  23
THE PAS        FLURRIES  16  12  86 N17G26    29.85R WCI   0
THOMPSON       MOCLDY     1  -2  85 N9        29.86R WCI -14
WINNIPEG       LGT SNOW  23  21  93 S18       29.71F DRFTSNOWWCI   9
LYNN LAKE      CLEAR      3   0  85 N12G17    29.97R WCI -13
CHURCHILL      LGT SNOW   5   1  85 N15       29.92R DRFTSNOWWCI -13
GILLAM         FLURRIES   0  -6  78 NW7       29.85S WCI -13
$$
                ***SASKATCHEWAN***

CITY           SKY/WX    TMP DP  RH WIND       PRES   REMARKS
ESTEVAN        MOCLDY    37  32  81 NW35G45   29.86S
KINDERSLEY     PTCLDY    37  27  65 NW18G26   30.15R
LLOYDMINSTER   MOCLDY    37  30  75 NW17      30.13R
PRINCE ALBERT  CLOUDY    36  32  87 N18G25    29.99R
REGINA         CLOUDY    37  30  75 NW31G43   29.89R
YORKTON        MOCLDY    36  34  93 NW22G30   29.72R
N. BATTLEFORD  CLOUDY    36  32  87 NW14      30.12R
LA RONGE       FLURRIES  27  25  93 N8        30.03R WCI  18
SASKATOON      CLOUDY    37  32  81 NW25G35   30.00R
SWIFT CURRENT  CLEAR     39  27  60 NW35G51   30.11R
$$
NOTE: THESE ARE AUTOMATED STATIONS WITH LIMITED QUALITY CONTROL
      "FAIR" INDICATES FEW OR NO CLOUDS BELOW 12,000 FEET WITH NO
      SIGNIFICANT WEATHER AND/OR OBSTRUCTIONS TO VISIBILITY.
      SKY/WX - SKY CONDITION AND SIGNIFICANT WEATHER.
      TMP - AIR TEMPERATURE.    DP   - DEWPOINT TEMPERATURE.
      RH  - RELATIVE HUMIDITY.  PRES - PRESSURE.
      HX  - HEAT INDEX.         WCI  - WIND CHILL INDEX.
$



USA.gov is the U.S. government's official web portal to all federal, state and local government web resources and services.